This demonstration page uses our WeatherBlox Daily Observations layout. Learn more.

39.92423, -83.80882

Hourly Observations for June 11, 2019

Temp ( °F °C ) Dew Point ( °F °C ) Humidity (%) Winds ( mph kmh ) Pressure ( in mb ) Visibility ( mi km ) Precip ( " mm )
12:56 am 00:56 Clear 53 11.7 49 9.4 86 86 WNW 7 11 30.17 1022 10 16.0934 0 0
1:56 am 01:56 Clear 53 11.7 50 10 89 89 WNW 3 6 30.18 1022 10 16.0934 0 0
2:56 am 02:56 Clear 51 10.6 50 10 96 96 Calm 30.19 1022 10 16.0934 0 0
3:56 am 03:56 Clear 50 10 49 9.4 96 96 W 3 6 30.18 1022 10 16.0934 0 0
4:56 am 04:56 Clear 48 8.9 48 8.9 100 100 Calm 30.19 1022 10 16.0934 0 0
5:56 am 05:56 Clear 47 8.3 47 8.3 100 100 SW 3 6 30.21 1023 10 16.0934 0 0
6:56 am 06:56 Sunny 49 9.4 49 9.4 100 100 SW 5 7 30.23 1024 10 16.0934 0 0
7:56 am 07:56 Sunny 56 13.3 51 10.6 84 84 VRB 5 7 30.24 1024 10 16.0934 0 0
8:56 am 08:56 Sunny 61 16.1 51 10.6 70 70 W 3 6 30.25 1024 10 16.0934 0 0
9:56 am 09:56 Sunny 65 18.3 52 11.1 63 63 Calm 30.25 1025 10 16.0934 0 0
10:56 am 10:56 Sunny 68 20 48 8.9 49 49 Calm 30.25 1024 10 16.0934 0 0
11:56 am 11:56 Sunny 70 21.1 45 7.2 41 41 Calm 30.24 1024 10 16.0934 0 0
12:56 pm 12:56 Sunny 72 22.2 48 8.9 43 43 VRB 3 6 30.23 1024 10 16.0934 0 0
1:56 pm 13:56 Hazy 72 22.2 50 10 46 46 NE 6 9 30.2 1023 5 8.0467 0 0
2:56 pm 14:56 Sunny 74 23.3 50 10 43 43 E 10 17 30.18 1022 10 16.0934 0 0
3:56 pm 15:56 Sunny 75 23.9 49 9.4 40 40 NNE 9 15 30.17 1022 10 16.0934 0 0
4:56 pm 16:56 Sunny 75 23.9 48 8.9 39 39 NNE 10 17 30.15 1021 10 16.0934 0 0
5:56 pm 17:56 Sunny 75 23.9 48 8.9 39 39 N 9 15 30.14 1021 10 16.0934 0 0
6:56 pm 18:56 Sunny 72 22.2 48 8.9 43 43 NE 8 13 30.13 1020 10 16.0934 0 0
7:56 pm 19:56 Sunny 71 21.7 49 9.4 46 46 NE 8 13 30.12 1020 10 16.0934 0 0
8:56 pm 20:56 Sunny 65 18.3 51 10.6 61 61 NE 7 11 30.13 1020 10 16.0934 0 0
9:56 pm 21:56 Clear 63 17.2 52 11.1 68 68 E 5 7 30.14 1021 10 16.0934 0 0
10:56 pm 22:56 Clear 61 16.1 52 11.1 72 72 ESE 6 9 30.14 1021 10 16.0934 0 0
11:56 pm 23:56 Clear 59 15 51 10.6 75 75 ESE 6 9 30.14 1021 10 16.0934 0 0

Powered by AerisWeather